Flag for United Kingdom Weather past 2 weeks in Southend-on-Sea, England, United Kingdom

Now
50 °F

Passing clouds.


Feels Like: 42 °F
Forecast: 42 / 51 °F
Wind: 30 mph from West

Location: Southend Airport-On-Sea

Current Time: Mar 31, 2015 at 7:55:51 AM

Latest Report: Mar 31, 2015 at 7:20 AM


Visibility: N/A

Pressure: 29.50 "Hg

Humidity: 58%

Dew point: 36 °F

Location of Southend-on-SeaLocation

Historic Weather in Southend-on-Sea — Graph

°F

Southend-on-Sea temperature yesterday

Maximum temperature yesterday: 54 °F (at 11:50 PM)
Minimum temperature yesterday: 43 °F (at 4:50 AM)
Average temperature yesterday: 48 °F

Past Weeks' High & Low Weather Summary

 TemperatureHumidityPressure
High57 °F (Mar 28, 11:50 AM)94% (Mar 28, 7:50 AM)30.51 "Hg (Mar 28, 7:50 AM)
Low30 °F (Mar 23, 3:50 AM)30% (Mar 30, 3:20 PM)29.27 "Hg (Mar 29, 3:20 PM)
Average45 °F74%30.03 "Hg
* Reported Mar 16 5:20 AM — Mar 31 6:20 AM, Southend-on-Sea, Weather by CustomWeather, © 2015

Note: Actual official high and low records may vary slightly from our data, if they occured in-between our weather recording intervals... More about our weather records

Advertising

Southend-on-Sea weather history for previous 24 hours

 ConditionsComfort  
Time TempWeatherWind HumidityBarometerVisibility
6:20 AM
Tue, Mar 31
52 °FPassing clouds.30 mph50%29.45 "HgN/A
5:50 AM52 °FPassing clouds.32 mph54%29.45 "HgN/A
5:20 AM52 °FPassing clouds.28 mph67%29.39 "HgN/A
4:50 AM54 °FPassing clouds.29 mph72%29.39 "HgN/A
3:50 AM54 °FPassing clouds.31 mph67%29.36 "HgN/A
2:50 AM54 °FPassing clouds.28 mph77%29.36 "HgN/A
1:50 AM57 °FPassing clouds.29 mph72%29.36 "HgN/A
12:50 AM55 °FPassing clouds.26 mph77%29.39 "HgN/A
12:20 AM54 °FPassing clouds.25 mph82%29.42 "HgN/A
11:50 PM
Mon, Mar 30
54 °FPassing clouds.23 mph82%29.45 "HgN/A
11:20 PM52 °FPartly cloudy.22 mph88%29.47 "HgN/A
10:50 PM52 °FLight rain. Passing clouds.22 mph88%29.50 "HgN/A
10:20 PM52 °FLight rain. Passing clouds.25 mph82%29.50 "HgN/A
9:50 PM50 °FLight rain. Passing clouds.22 mph88%29.53 "HgN/A
9:20 PM48 °FLight rain. Low clouds.22 mph87%29.56 "HgN/A
8:50 PM48 °FLight rain. Low clouds.18 mph87%29.59 "HgN/A
8:20 PM48 °FLight rain. More clouds than sun.16 mph82%29.62 "HgN/A
7:50 PM46 °FRain. Overcast.15 mph82%29.68 "HgN/A
7:20 PM48 °FRain. Overcast.15 mph76%29.74 "HgN/A
6:50 PM48 °FLight rain. Passing clouds.17 mph66%29.74 "HgN/A
6:20 PM50 °FPassing clouds.17 mph54%29.77 "HgN/A
5:50 PM50 °FPassing clouds.16 mph47%29.77 "HgN/A
5:20 PM52 °FPassing clouds.16 mph47%29.80 "HgN/A
4:50 PM52 °FPassing clouds.18 mph47%29.80 "HgN/A
4:20 PM52 °FPassing clouds.17 mph35%29.80 "HgN/A
3:50 PM52 °FPassing clouds.15 mph35%29.83 "HgN/A
3:20 PM52 °FPassing clouds.14 mph30%29.83 "HgN/A
2:50 PM52 °FPassing clouds.14 mph35%29.86 "HgN/A
2:20 PM52 °FPassing clouds.13 mph41%29.86 "HgN/A
1:50 PM52 °FPassing clouds.15 mph41%29.86 "HgN/A
1:20 PM52 °FPassing clouds.13 mph41%29.86 "HgN/A
12:50 PM50 °FPassing clouds.10 mph43%29.86 "HgN/A
12:20 PM50 °FPassing clouds.14 mph43%29.86 "HgN/A
11:50 AM50 °FPassing clouds.16 mph43%29.86 "HgN/A
11:20 AM48 °FPassing clouds.15 mph46%29.83 "HgN/A
10:50 AM48 °FPassing clouds.15 mph50%29.83 "HgN/A
10:20 AM48 °FScattered clouds.17 mph50%29.83 "HgN/A
9:50 AM46 °FScattered clouds.15 mph53%29.80 "HgN/A
9:20 AM46 °FScattered clouds.17 mph53%29.80 "HgN/A
8:50 AM45 °FPassing clouds.15 mph57%29.77 "HgN/A
8:20 AM45 °FPassing clouds.18 mph61%29.77 "HgN/A
7:50 AM43 °FPassing clouds.16 mph61%29.74 "HgN/A
7:20 AM43 °FPassing clouds.15 mph66%29.71 "HgN/A
Weather by CustomWeather, © 2015

See weather overviewHow to use our weather pages